Lapse_Rate
4.9 5.7 3.2 2.3 4.7 2.8 1.9 1.3 1.1 0.5 0.3 -0.0 -0.3 -0.0 -0.1 -0.6 -0.9 -0.7 -0.0 0.3 0.2 0.5 0.8 3.0 4.5 5.1 7.5 8.5 8.5 9.8 8.9 9.5 9.8 9.8 8.9 8.5 7.8 7.6 6.5 7.2 7.5 6.6 7.1 7.6 7.8 7.8 7.7
5.7 3.3 3.1 2.1 2.5 3.2 2.3 1.2 0.9 0.6 0.4 0.2 -0.3 -0.2 -0.1 -0.4 -0.8 -0.4 -0.0 0.4 0.4 0.8 1.2 4.0 4.8 5.6 9.0 7.4 10.0 9.8 9.8 10.0 9.9 9.6 9.0 8.9 8.4 8.3 7.4 7.1 6.7 7.4 7.4 7.4 7.6 7.5 7.7
5.1 3.6 2.9 2.0 2.5 3.3 2.4 1.4 1.0 0.8 0.7 0.2 0.0 -0.1 0.0 -0.2 -0.5 -0.3 0.1 0.4 0.7 1.3 2.5 5.5 5.6 9.7 8.5 8.3 9.9 9.8 9.9 9.9 10.0 9.6 8.9 9.2 9.0 8.1 8.1 7.0 8.0 7.6 6.5 6.9 7.1 7.3 7.0
4.1 3.6 2.7 2.1 2.5 3.1 2.3 1.4 1.1 1.0 0.8 0.3 0.2 0.1 0.1 0.1 -0.1 0.4 0.8 0.9 1.3 2.1 4.1 4.8 5.8 9.6 8.1 9.9 9.8 10.0 10.1 9.8 10.1 10.0 9.5 9.6 9.4 8.6 7.8 8.2 7.4 6.5 6.5 6.5 6.7 7.0 7.2
4.4 3.6 3.8 1.9 2.7 2.7 2.2 1.5 1.3 1.1 0.9 0.6 0.3 0.3 0.1 0.3 0.4 1.2 1.9 1.8 2.5 4.0 5.3 5.4 8.8 9.0 7.7 8.9 9.4 10.0 10.0 9.2 9.5 9.7 9.6 9.5 9.0 8.0 7.9 6.5 6.5 6.5 6.5 6.5 6.5 7.1 6.6
3.2 3.1 5.2 2.1 2.4 2.7 2.2 1.6 1.4 1.3 1.0 0.8 0.4 0.3 0.3 0.4 1.0 2.0 3.1 2.2 3.7 4.3 7.8 9.8 9.6 8.0 8.7 8.2 9.3 9.7 10.1 9.6 8.8 8.6 8.4 8.1 7.8 6.6 6.5 6.5 6.5 6.5 6.5 6.5 6.5 6.5 6.5
2.3 2.4 3.6 2.2 2.4 3.3 2.3 1.7 1.2 1.2 1.0 1.0 0.5 0.3 0.6 0.8 1.7 3.3 3.5 8.1 8.7 8.4 9.0 8.0 8.1 8.1 8.5 9.4 9.8 9.3 9.5 9.0 8.7 8.0 6.5 7.6 6.5 6.5 6.5 6.5 6.5 6.5 6.5 6.5 6.5 6.5 6.5
2.0 2.3 2.0 2.6 2.5 3.8 2.3 1.9 1.4 1.2 1.2 1.3 0.7 0.4 0.7 1.2 2.5 3.7 5.8 8.7 8.4 9.2 7.5 8.9 8.8 8.7 9.0 9.2 7.9 8.7 9.4 7.7 7.3 6.5 7.0 6.5 6.5 6.5 6.7 6.5 6.5 6.5 6.5 6.5 6.5 6.5 6.5
2.0 1.8 3.5 2.7 3.8 3.1 2.4 2.0 1.5 1.3 1.5 1.3 0.7 0.7 1.3 3.0 3.6 5.7 9.2 9.1 8.8 9.0 7.3 7.8 8.6 8.4 8.6 8.9 7.8 8.0 8.7 8.0 7.0 6.5 6.5 6.5 6.5 7.0 6.5 6.5 6.5 6.5 6.5 6.5 6.5 6.5 6.5
3.0 2.8 2.1 2.4 4.1 2.7 2.5 2.1 1.7 1.5 1.5 1.2 1.0 1.2 3.3 3.8 5.4 9.5 8.9 7.8 6.7 6.3 6.5 6.5 7.2 8.1 8.6 8.6 7.3 9.0 9.1 8.0 7.0 6.5 6.5 6.5 6.9 6.5 6.5 6.5 6.5 6.5 6.5 6.5 6.5 6.5 6.5
4.7 2.2 1.6 2.5 3.2 2.6 2.4 2.1 2.0 1.9 1.8 1.3 1.2 1.7 3.8 3.2 8.2 8.8 9.1 6.8 6.4 6.8 6.5 6.5 7.2 9.4 8.7 7.5 7.8 7.9 9.2 8.2 6.5 6.5 6.5 6.5 6.5 6.5 6.5 6.5 6.5 6.5 6.5 6.5 6.5 6.5 6.5
4.4 2.6 2.0 3.0 2.5 2.4 2.2 2.1 1.9 1.9 1.7 1.5 1.6 1.8 4.2 6.8 8.3 7.5 6.4 6.3 6.6 6.5 6.5 6.5 7.3 6.8 6.9 7.4 7.4 8.0 7.9 8.5 8.1 6.6 6.8 6.5 7.5 6.7 6.6 6.6 6.6 6.8 6.5 6.5 6.5 6.5 6.5
4.8 3.5 2.7 2.9 2.4 2.4 2.3 2.2 1.9 2.0 1.8 1.7 2.0 2.8 4.6 8.1 8.5 5.3 5.7 7.7 6.5 6.5 6.5 6.5 6.5 6.6 6.5 6.5 6.5 6.8 6.5 6.5 6.5 6.5 6.5 6.5 6.5 6.9 7.2 6.5 6.6 6.5 6.5 6.5 6.5 6.5 6.5
5.0 4.8 4.5 3.5 2.5 2.5 2.5 2.5 2.0 2.1 1.9 1.9 3.3 4.9 5.0 5.9 5.6 5.0 7.4 6.7 6.5 6.5 6.5 6.5 6.5 6.5 6.5 6.5 6.5 6.5 6.5 6.5 6.5 6.5 6.5 6.5 6.5 6.5 6.9 6.5 6.5 6.5 6.5 6.5 6.5 6.5 6.5
5.9 5.4 5.1 2.9 2.8 2.6 2.6 2.5 2.3 2.2 2.1 2.6 4.5 7.2 7.5 4.4 4.7 6.1 7.8 6.5 6.5 6.5 6.5 6.5 6.5 6.5 6.5 6.5 6.5 6.5 6.5 6.5 6.5 6.5 6.5 6.5 6.5 6.7 6.8 7.0 6.7 6.5 6.5 6.5 6.5 6.5 6.5
5.9 5.6 4.9 3.8 2.9 2.7 2.7 2.6 2.6 2.4 2.5 3.7 9.3 9.1 8.6 4.2 4.3 7.4 6.6 6.5 6.5 6.8 6.9 6.6 6.5 6.5 6.5 6.5 6.5 6.5 6.5 6.5 6.5 6.8 7.1 6.5 6.5 6.5 6.5 7.0 6.9 6.5 6.6 6.5 6.5 6.5 6.5
5.9 5.4 4.9 4.1 3.1 2.8 3.0 2.9 2.8 2.7 3.1 3.8 9.1 7.9 7.2 5.3 5.9 7.5 6.5 6.5 6.5 7.4 7.4 6.5 6.5 6.5 6.5 6.5 6.5 6.5 6.5 6.5 6.8 6.6 7.1 6.5 6.5 6.5 6.5 6.5 6.5 6.5 6.5 6.5 6.5 6.5 6.5
5.7 5.9 5.9 4.1 3.0 3.0 3.2 3.2 2.9 2.9 3.6 2.8 8.4 6.6 7.7 6.6 6.8 6.9 6.5 6.5 6.1 7.0 7.5 6.9 6.7 6.5 6.5 6.5 6.5 6.5 6.5 6.5 7.4 7.2 6.5 6.6 6.5 6.5 6.5 6.5 6.9 6.5 6.5 6.5 6.5 6.5 6.5
6.4 5.7 5.8 3.8 3.2 3.2 3.3 3.4 3.2 3.0 3.9 9.2 7.8 7.9 8.2 6.9 6.5 6.5 6.8 6.5 7.1 6.7 6.8 6.5 6.5 6.6 6.7 6.5 6.5 6.5 6.5 7.2 7.6 7.0 6.5 6.6 6.5 6.5 6.5 6.5 6.5 6.5 6.5 6.5 6.5 6.5 6.5
6.0 6.1 5.0 4.0 3.6 3.6 3.4 3.3 3.5 3.3 4.0 6.5 7.7 6.5 7.4 8.2 7.9 6.7 6.5 6.5 6.5 7.4 7.0 7.2 6.7 7.0 6.5 6.5 6.5 6.5 6.5 6.8 7.5 7.3 6.6 6.9 6.5 6.5 6.5 6.5 6.5 6.5 6.5 6.5 6.5 6.5 6.5
5.8 6.5 4.6 4.4 3.8 3.7 3.6 3.5 3.8 3.8 3.6 6.5 8.1 6.9 7.5 6.5 6.7 6.9 6.8 6.5 6.5 6.5 7.2 7.4 6.6 6.5 6.5 6.5 6.5 6.5 6.5 6.6 7.2 6.2 7.2 6.7 6.5 6.5 6.5 6.5 6.5 6.5 6.5 6.5 6.5 6.5 6.5
5.8 6.2 5.4 4.7 4.5 4.2 3.7 3.7 3.8 3.7 3.6 8.6 4.2 6.8 7.7 7.2 7.4 6.7 6.2 6.5 6.5 6.5 6.6 6.5 6.5 6.5 6.5 6.5 6.5 6.5 6.5 6.5 6.5 7.0 6.5 6.8 6.5 6.5 6.5 6.5 6.5 6.5 6.5 6.5 6.5 6.5 6.5
6.2 6.1 5.9 5.5 5.0 4.5 3.9 3.7 3.7 3.9 3.9 8.7 8.6 8.1 7.8 6.7 6.9 6.5 6.5 6.5 6.5 6.9 7.1 7.3 6.9 6.6 6.5 6.6 7.3 7.5 7.6 7.5 7.1 6.6 6.5 6.5 6.5 6.5 6.5 6.5 6.5 6.5 6.5 6.5 6.5 6.5 6.5
6.4 6.2 5.8 5.5 5.2 4.6 4.1 3.7 3.8 4.3 4.0 9.1 9.1 8.8 7.1 6.5 6.6 6.5 6.8 7.0 6.5 7.0 6.6 7.2 7.5 6.7 7.6 8.7 8.4 8.1 7.7 7.4 7.3 7.1 7.3 6.5 6.5 6.5 6.5 6.5 6.5 6.5 6.5 6.5 6.5 6.5 6.5
6.8 6.3 6.0 6.0 5.8 4.9 4.2 3.9 4.0 4.4 5.1 8.3 7.3 8.4 7.4 6.5 7.1 6.9 7.0 6.9 7.2 7.4 7.1 7.2 7.6 8.1 8.7 7.9 6.5 6.5 6.5 6.5 6.5 6.7 6.7 7.0 6.5 6.5 6.5 6.5 6.5 6.5 6.5 6.5 6.5 6.5 6.7
6.8 6.0 6.3 6.5 5.6 4.9 4.4 4.1 4.1 4.6 5.4 6.9 5.2 6.5 7.6 6.7 6.6 7.6 7.1 7.3 6.5 6.5 6.8 7.3 8.4 8.7 8.2 6.9 6.5 6.5 6.5 6.5 6.5 6.5 7.0 6.8 6.6 6.5 6.5 6.5 6.5 6.5 6.5 7.5 7.1 6.5 7.1
7.1 6.2 6.9 6.6 5.7 5.3 4.7 4.4 4.4 4.9 5.7 6.6 4.6 3.5 6.8 6.2 8.0 7.7 7.0 6.8 7.7 7.3 6.5 7.3 7.5 7.5 8.1 6.5 6.5 6.5 6.5 6.5 6.5 6.5 6.5 6.5 6.5 6.5 6.5 6.5 6.5 6.5 7.1 7.6 6.5 6.5 7.4
6.2 6.8 6.8 6.6 5.7 5.3 4.8 4.5 4.5 4.8 5.5 6.4 4.0 4.1 6.5 7.6 8.0 8.4 8.2 7.8 7.8 7.6 6.5 7.3 7.1 7.2 6.7 6.5 6.5 6.5 6.5 6.5 6.5 6.5 6.5 6.5 6.5 6.5 6.5 6.5 6.5 7.4 7.0 6.5 6.9 7.7 7.8
6.5 6.6 6.3 5.9 5.7 5.3 4.7 4.5 4.5 5.1 5.6 6.7 5.8 5.0 5.2 4.2 7.9 8.7 8.1 8.1 8.3 8.6 7.9 7.8 7.2 7.4 7.3 6.5 6.5 6.5 6.5 6.5 6.5 6.5 6.5 6.5 6.5 6.5 6.5 6.5 7.1 7.7 7.5 8.1 8.2 7.9 8.0
Wind_Speed
26 24 23 21 19 17 15 13 10 7 5 3 2 3 4 6 8 10 12 13 12 13 12 5 4 8 4 13 11 14 17 19 12 12 9 11 9 9 13 20 22 19 18 19 16 15 14
27 26 23 22 19 18 16 14 10 7 5 4 2 2 4 6 8 9 13 14 12 12 11 2 9 9 6 17 8 11 13 15 17 13 14 10 19 17 11 8 11 16 16 13 12 12 13
28 25 24 22 21 18 17 14 11 8 5 4 2 2 4 6 7 7 12 16 12 10 9 5 7 13 24 11 7 11 11 15 13 14 15 9 4 2 16 20 19 19 19 15 9 6 4
30 26 24 22 21 19 17 14 11 9 6 3 2 2 3 5 6 7 11 15 11 10 4 6 6 11 8 7 8 10 7 11 15 12 11 11 14 14 6 15 9 8 8 5 7 1 2
31 29 26 24 21 20 17 15 12 9 7 4 2 1 3 4 6 7 10 13 9 4 6 9 3 8 8 2 12 9 10 9 8 10 10 7 9 13 14 11 8 7 4 10 8 6 1
33 30 28 25 22 21 19 15 12 10 7 4 2 1 2 4 5 3 6 8 7 7 4 3 2 9 6 7 8 8 8 6 5 3 7 5 6 9 4 7 2 7 7 6 7 7 7
35 33 29 26 24 23 19 16 13 10 8 5 2 1 2 4 4 1 2 3 4 6 15 15 13 21 16 14 10 13 6 6 5 8 16 17 13 12 11 10 9 7 7 10 8 5 1
36 34 30 28 26 24 20 17 14 11 9 6 3 3 2 2 5 4 4 10 9 16 13 16 17 15 9 3 11 14 2 1 3 13 17 15 15 9 7 8 8 7 6 8 6 6 5
38 35 32 29 28 25 21 18 14 11 7 4 2 1 2 4 5 4 7 2 2 7 6 7 7 9 11 11 10 10 8 13 15 14 13 12 8 6 6 7 10 11 7 4 6 2 1
38 36 34 31 28 26 22 18 14 11 7 4 3 2 5 5 4 6 5 4 2 6 2 5 4 4 4 5 7 8 3 3 3 12 11 12 5 5 8 8 8 3 5 3 3 6 1
38 36 35 31 29 25 22 19 15 11 8 6 5 2 7 9 7 10 5 4 3 3 2 5 5 3 6 2 11 8 6 12 8 7 3 6 9 5 7 6 6 5 3 3 4 6 4
38 35 34 32 29 25 22 19 15 12 8 6 6 5 9 4 0 6 7 2 3 2 4 6 7 11 9 7 6 5 5 8 10 19 18 11 6 9 4 1 4 2 4 5 5 3 6
39 36 34 31 29 25 23 19 16 13 10 8 9 6 5 3 5 7 6 4 2 3 8 8 11 11 10 9 6 5 6 5 1 5 5 9 7 5 5 4 2 5 4 3 3 4 2
40 38 35 32 30 27 23 20 17 14 13 16 15 9 7 6 7 8 4 4 3 5 7 7 16 15 9 12 7 5 5 6 4 2 7 5 5 6 5 6 4 3 4 1 4 3 3
40 38 34 32 30 28 23 20 18 16 16 16 17 7 5 4 5 5 7 3 5 8 10 14 14 12 11 8 6 6 2 5 3 2 2 3 4 5 5 6 5 2 1 4 3 1 4
41 37 36 33 31 28 24 21 19 18 20 25 7 7 4 2 3 6 2 4 3 2 11 18 6 9 9 13 10 9 7 3 6 2 2 2 5 4 4 3 5 5 3 2 2 0 4
40 38 36 34 31 28 24 22 20 20 22 18 8 5 4 4 3 5 3 4 4 7 11 10 3 7 7 15 8 10 8 6 4 5 2 5 1 6 3 4 1 3 3 2 1 3 3
41 38 36 33 31 28 25 22 21 21 21 4 4 3 4 4 5 3 3 6 5 11 4 2 3 3 10 12 7 6 7 2 8 9 7 4 1 4 3 4 3 2 2 5 2 3 5
42 40 36 33 31 28 26 23 21 22 27 7 5 4 3 3 5 6 8 8 6 13 11 7 5 3 5 9 5 8 10 6 10 6 6 7 4 3 5 5 3 3 2 3 2 3 10
42 39 36 34 31 29 26 23 21 23 23 3 4 4 4 4 3 13 14 10 8 6 8 5 9 9 9 9 4 10 10 5 7 5 5 2 4 3 3 1 5 4 8 6 5 4 5
42 38 37 35 33 29 26 23 20 20 16 3 2 4 7 6 5 15 14 13 14 8 7 9 6 7 10 6 7 7 11 12 8 9 6 2 2 0 5 9 10 9 10 13 15 13 7
42 39 36 34 31 29 26 22 20 17 13 2 4 4 4 7 13 16 12 13 16 11 13 15 8 11 10 8 5 11 11 9 6 10 7 4 0 3 5 7 9 14 17 17 19 20 22
41 39 36 34 31 28 26 23 20 20 15 2 2 1 4 7 14 11 11 13 16 12 1 9 9 12 9 8 5 8 7 8 6 10 10 6 3 2 3 4 9 11 16 19 18 18 17
41 39 37 34 32 28 25 23 21 22 11 1 3 4 4 4 11 13 13 14 16 14 8 9 12 9 10 14 15 12 9 6 7 6 7 6 7 3 3 4 4 3 1 4 6 10 14
40 38 36 34 31 28 25 23 20 19 8 2 2 2 3 4 10 13 14 12 12 9 13 15 7 9 16 13 5 4 2 2 4 6 7 6 7 3 3 5 13 14 3 8 5 11 9
39 37 34 33 31 27 25 22 20 18 9 1 4 3 3 4 6 11 14 19 15 14 10 7 13 11 6 3 2 4 5 4 4 6 6 8 9 5 3 3 4 4 4 3 5 10 7
39 37 34 32 30 27 25 23 20 17 9 2 3 5 4 4 4 5 10 14 9 9 7 11 9 6 3 3 2 3 4 5 7 8 6 8 6 10 9 6 8 7 1 1 5 4 8
39 36 34 31 29 26 24 22 20 17 11 1 5 6 2 3 6 6 1 9 9 8 6 12 6 1 1 3 3 3 4 6 3 6 10 10 8 5 8 4 7 7 2 5 9 10 13
38 35 33 31 29 26 23 21 21 18 11 5 3 6 13 5 5 11 12 12 9 7 11 12 2 10 5 3 3 2 2 3 5 3 11 7 7 3 8 5 6 3 7 11 11 14 16
Wind_Direction
167 172 171 166 192 194 187 181 186 177 168 189 247 323 5 20 27 11 329 316 312 301 284 278 261 269 285 69 32 6 331 3 31 40 33 53 57 56 86 99 93 91 94 90 90 85 84
173 169 171 173 185 193 193 181 183 187 179 197 243 318 354 13 25 2 324 312 303 297 285 346 349 256 83 76 343 27 20 28 25 54 55 78 76 78 76 64 95 112 96 97 98 100 91
172 171 173 172 181 195 194 183 184 188 193 196 246 317 353 12 12 353 323 312 305 298 300 356 352 93 67 57 39 3 36 30 41 38 65 94 116 348 110 94 115 122 104 82 55 65 74
169 171 172 173 180 196 193 185 186 186 193 200 247 313 351 3 358 346 318 306 304 297 325 318 313 82 71 29 21 30 18 56 49 53 64 74 79 96 82 123 146 165 192 166 58 196 16
169 170 175 171 181 193 190 188 186 185 187 209 254 339 348 358 349 343 318 304 292 277 254 267 286 105 82 136 34 37 24 18 28 48 82 80 96 107 145 148 156 200 98 102 106 31 129
169 171 176 174 183 191 191 187 185 184 186 206 239 348 353 5 349 338 294 278 263 228 229 204 99 103 57 57 40 36 23 11 13 132 94 112 140 135 109 245 30 125 111 72 61 25 86
169 171 173 175 183 193 192 187 183 186 187 202 200 121 15 37 52 76 206 196 183 88 54 73 70 95 111 98 54 39 42 40 91 64 76 44 86 68 60 45 60 74 106 97 79 35 99
169 171 172 177 182 193 190 187 184 188 190 198 195 141 77 88 81 112 278 251 24 132 94 91 91 84 77 120 68 30 78 78 82 100 111 87 71 65 62 75 78 79 111 88 108 53 270
170 170 173 177 186 189 188 185 183 187 197 199 172 135 144 136 124 163 215 315 329 341 110 69 66 79 70 80 53 48 23 40 79 88 63 78 87 57 72 87 82 51 39 36 359 48 78
171 171 172 175 187 186 185 182 183 182 194 182 160 170 181 162 131 174 207 162 5 352 138 128 153 93 128 128 65 51 57 2 64 96 84 67 79 93 86 65 318 106 16 302 267 251 269
174 171 171 172 183 181 180 179 181 179 187 170 152 147 182 207 117 190 104 152 333 253 188 171 111 125 140 59 142 60 9 69 89 114 179 95 61 74 73 39 334 58 304 271 257 258 237
174 171 170 175 177 178 175 176 175 178 176 161 154 147 154 183 338 78 126 163 263 267 213 162 150 151 119 110 75 97 95 75 75 79 84 101 87 41 47 56 11 103 192 198 225 251 239
171 172 171 173 172 176 174 174 172 176 170 158 147 143 220 114 143 149 143 206 169 210 160 165 166 172 134 134 111 131 134 105 121 115 115 116 74 100 12 231 209 197 223 221 212 203 294
169 172 173 173 170 173 173 174 171 173 158 142 136 120 68 75 128 152 178 199 193 156 191 152 153 148 142 138 125 145 157 115 74 329 148 177 164 358 10 22 355 31 333 302 254 293 341
168 172 171 171 170 170 171 172 174 171 161 154 148 136 129 69 151 194 185 191 178 172 140 156 155 161 147 147 154 156 162 111 86 349 157 140 111 103 51 38 313 69 109 3 305 241 267
169 170 168 171 168 168 171 171 175 172 168 164 151 153 103 121 173 209 171 229 160 174 156 163 168 206 170 164 159 184 167 136 127 110 270 122 129 206 128 252 63 1 81 205 61 308 270
165 166 168 167 166 166 171 173 175 174 179 184 160 153 106 161 203 171 197 190 144 164 154 196 151 185 174 158 166 169 146 140 142 132 208 129 132 147 191 210 148 150 144 89 328 303 285
163 166 166 165 164 165 170 176 176 173 178 187 177 119 144 182 133 157 188 167 121 153 143 134 169 126 160 162 162 135 155 128 156 152 141 69 159 167 122 106 316 311 192 187 238 183 254
164 164 164 163 164 166 170 175 178 175 180 162 116 118 169 236 139 195 155 144 171 166 163 167 143 136 139 160 136 131 127 118 151 160 161 166 167 152 174 170 190 230 122 99 98 266 245
162 163 162 163 164 168 170 174 181 185 198 245 129 114 155 217 210 186 180 171 148 203 141 168 131 139 139 139 119 149 126 148 159 133 41 170 199 225 316 74 113 169 197 201 202 211 258
161 163 160 163 165 168 171 174 183 187 193 248 132 176 173 175 221 194 188 180 161 155 187 176 173 177 160 156 153 153 130 137 174 131 183 209 191 268 253 247 245 233 200 198 216 224 236
160 160 161 162 165 168 169 171 176 179 183 220 130 145 201 163 173 185 180 197 178 169 166 183 192 175 156 162 177 176 157 170 164 170 178 159 205 284 261 250 264 269 260 241 228 227 247
158 160 161 161 163 166 167 165 167 173 196 139 146 160 123 164 173 176 188 188 187 154 206 181 188 164 161 111 95 131 146 159 147 171 182 165 153 207 268 336 317 278 258 239 245 238 243
158 160 160 162 163 165 164 163 167 179 203 272 166 144 106 175 186 184 188 180 177 180 147 156 160 157 99 111 103 94 92 110 145 154 188 185 162 176 275 290 260 53 41 2 275 267 260
157 157 159 159 161 161 161 161 166 176 204 259 143 112 112 130 187 180 183 172 121 125 140 117 44 97 152 142 95 85 64 72 262 184 200 199 181 207 244 245 292 287 299 235 256 284 296
157 155 157 158 158 159 159 160 163 171 190 180 67 325 108 108 189 184 174 145 141 125 109 106 118 135 160 109 133 174 180 140 175 159 228 199 222 213 191 258 259 82 83 342 311 276 55
155 154 157 156 155 156 156 159 161 166 169 144 88 5 89 98 38 216 162 169 153 153 119 140 147 154 185 133 162 183 188 178 171 174 174 178 209 223 220 251 273 315 182 28 249 25 349
150 153 153 152 152 152 154 158 161 163 161 100 82 10 73 92 50 38 299 136 155 138 149 150 121 164 134 157 179 189 227 197 216 184 175 177 180 192 220 241 259 130 153 233 351 318 315
148 149 149 149 148 149 151 155 158 161 155 143 99 64 74 83 96 86 63 44 25 354 124 168 341 149 162 144 196 183 189 169 214 226 183 202 210 215 194 217 129 190 282 303 312 309 311